| time (UTC) | temp C | wind direction | speed KPH | gust KPH | rain 1hr cm | rain 24hr cm | rain mn cm | humidity % | barometer mb |
| 20260506081323 | 9 | 360 | 9.7 | 19.3 | 0.00 | 0.00 | 0.00 | 63 | 1012.4 |
| 20260506080830 | 9 | 360 | 9.7 | 20.9 | 0.00 | 0.00 | 0.00 | 64 | 1012.2 |
| 20260506080330 | 9 | 360 | 14.5 | 20.9 | 0.00 | 0.00 | 0.00 | 64 | 1012.1 |
| 20260506073316 | 9 | 360 | 14.5 | 22.5 | 0.00 | 0.00 | 0.00 | 66 | 1011.3 |
| 20260506072837 | 9 | 360 | 12.9 | 20.9 | 0.00 | 0.00 | 0.00 | 66 | 1011.6 |
| 20260506072343 | 9 | 360 | 9.7 | 20.9 | 0.00 | 0.00 | 0.00 | 66 | 1012.0 |
| 20260506071849 | 9 | 360 | 9.7 | 24.1 | 0.00 | 0.00 | 0.00 | 66 | 1012.1 |
| 20260506071328 | 9 | 360 | 14.5 | 25.7 | 0.00 | 0.00 | 0.00 | 66 | 1011.5 |
| 20260506070836 | 9 | 20 | 17.7 | 25.7 | 0.00 | 0.00 | 0.00 | 66 | 1011.4 |
| 20260506070317 | 9 | 360 | 14.5 | 24.1 | 0.00 | 0.00 | 0.00 | 67 | 1011.6 |
| 20260506062317 | 10 | 21 | 11.3 | 22.5 | 0.00 | 0.00 | 0.00 | 69 | 1012.0 |
| 20260506061819 | 10 | 36 | 11.3 | 22.5 | 0.00 | 0.00 | 0.00 | 69 | 1012.0 |
| 20260506061325 | 10 | 20 | 12.9 | 29.0 | 0.00 | 0.00 | 0.00 | 69 | 1011.8 |
| 20260506060832 | 10 | 31 | 11.3 | 29.0 | 0.00 | 0.00 | 0.00 | 69 | 1011.7 |
| 20260506060312 | 10 | 26 | 11.3 | 22.5 | 0.00 | 0.00 | 0.00 | 70 | 1011.7 |
| 20260506051314 | 10 | 63 | 11.3 | 24.1 | 0.00 | 0.00 | 0.00 | 68 | 1011.6 |
| 20260506050814 | 10 | 67 | 11.3 | 22.5 | 0.00 | 0.00 | 0.00 | 68 | 1011.7 |
| 20260506050322 | 10 | 77 | 11.3 | 22.5 | 0.00 | 0.00 | 0.00 | 68 | 1011.9 |
| 20260506044844 | 10 | 66 | 14.5 | 25.7 | 0.00 | 0.00 | 0.00 | 68 | 1011.6 |
| 20260506044323 | 10 | 70 | 12.9 | 24.1 | 0.00 | 0.00 | 0.00 | 68 | 1011.5 |
| 20260506043823 | 10 | 40 | 14.5 | 24.1 | 0.00 | 0.00 | 0.00 | 68 | 1011.6 |
| 20260506043351 | 10 | 360 | 12.9 | 24.1 | 0.00 | 0.00 | 0.00 | 68 | 1011.6 |
| 20260506042837 | 10 | 22 | 16.1 | 24.1 | 0.00 | 0.00 | 0.00 | 68 | 1011.7 |
| 20260506042318 | 10 | 66 | 12.9 | 25.7 | 0.00 | 0.00 | 0.00 | 68 | 1011.6 |
| 20260506041817 | 10 | 32 | 17.7 | 25.7 | 0.00 | 0.00 | 0.00 | 68 | 1011.3 |
| 20260506041345 | 10 | 63 | 16.1 | 25.7 | 0.00 | 0.00 | 0.00 | 68 | 1011.5 |
| 20260506040823 | 10 | 360 | 11.3 | 20.9 | 0.00 | 0.00 | 0.00 | 68 | 1011.6 |
| 20260506040330 | 10 | 28 | 12.9 | 22.5 | 0.00 | 0.00 | 0.00 | 68 | 1011.5 |
| 20260506035830 | 10 | 56 | 11.3 | 22.5 | 0.00 | 0.00 | 0.00 | 68 | 1011.7 |
| 20260506035330 | 10 | 84 | 8.0 | 19.3 | 0.00 | 0.00 | 0.00 | 68 | 1011.6 |
| 20260506034839 | 10 | 24 | 9.7 | 22.5 | 0.00 | 0.00 | 0.00 | 68 | 1011.5 |
| 20260506034318 | 10 | 28 | 8.0 | 22.5 | 0.00 | 0.00 | 0.00 | 68 | 1011.6 |
| 20260506033825 | 10 | 50 | 9.7 | 17.7 | 0.00 | 0.00 | 0.00 | 68 | 1011.5 |
| 20260506033326 | 10 | 46 | 11.3 | 19.3 | 0.00 | 0.00 | 0.00 | 68 | 1011.4 |
| 20260506032827 | 10 | 44 | 9.7 | 25.7 | 0.00 | 0.00 | 0.00 | 68 | 1011.3 |
| 20260506032334 | 10 | 52 | 12.9 | 25.7 | 0.00 | 0.00 | 0.00 | 67 | 1011.2 |
| 20260506031814 | 10 | 360 | 11.3 | 19.3 | 0.00 | 0.00 | 0.00 | 67 | 1011.2 |
| 20260506031313 | 10 | 360 | 12.9 | 27.4 | 0.00 | 0.00 | 0.00 | 67 | 1011.3 |
| 20260506030821 | 10 | 360 | 17.7 | 27.4 | 0.00 | 0.00 | 0.00 | 66 | 1011.0 |
| 20260506030328 | 10 | 360 | 14.5 | 29.0 | 0.00 | 0.00 | 0.00 | 66 | 1011.1 |
| 20260506025828 | 11 | 360 | 11.3 | 29.0 | 0.00 | 0.00 | 0.00 | 66 | 1010.9 |
| 20260506025335 | 11 | 360 | 12.9 | 24.1 | 0.00 | 0.00 | 0.00 | 66 | 1011.1 |
| 20260506024814 | 11 | 360 | 12.9 | 20.9 | 0.00 | 0.00 | 0.00 | 65 | 1011.1 |
| 20260506024342 | 11 | 360 | 11.3 | 20.9 | 0.00 | 0.00 | 0.00 | 65 | 1011.0 |
| 20260506023850 | 11 | 360 | 14.5 | 25.7 | 0.00 | 0.00 | 0.00 | 65 | 1010.9 |
| 20260506023328 | 11 | 360 | 14.5 | 25.7 | 0.00 | 0.00 | 0.00 | 65 | 1010.7 |
| 20260506022828 | 11 | 360 | 11.3 | 27.4 | 0.00 | 0.00 | 0.00 | 65 | 1010.7 |
| 20260506022335 | 11 | 360 | 16.1 | 27.4 | 0.00 | 0.00 | 0.00 | 65 | 1010.5 |
| 20260506021815 | 11 | 360 | 16.1 | 27.4 | 0.00 | 0.00 | 0.00 | 66 | 1010.4 |
| 20260506021315 | 11 | 347 | 12.9 | 25.7 | 0.00 | 0.00 | 0.00 | 66 | 1010.4 |
| 20260506020822 | 11 | 35 | 8.0 | 25.7 | 0.00 | 0.00 | 0.00 | 66 | 1010.3 |
| 20260506020321 | 11 | 35 | 11.3 | 25.7 | 0.00 | 0.00 | 0.00 | 66 | 1010.1 |
| 20260506015848 | 11 | 22 | 14.5 | 24.1 | 0.00 | 0.00 | 0.00 | 66 | 1010.0 |
| 20260506015327 | 11 | 42 | 11.3 | 22.5 | 0.00 | 0.00 | 0.00 | 66 | 1010.0 |
| 20260506014836 | 11 | 70 | 16.1 | 22.5 | 0.00 | 0.00 | 0.00 | 65 | 1009.7 |
| 20260506014314 | 11 | 69 | 12.9 | 22.5 | 0.00 | 0.00 | 0.00 | 66 | 1009.6 |
| 20260506013812 | 11 | 48 | 8.0 | 22.5 | 0.00 | 0.00 | 0.00 | 66 | 1009.7 |
| 20260506013313 | 11 | 49 | 11.3 | 24.1 | 0.00 | 0.00 | 0.00 | 66 | 1009.5 |
| 20260506012819 | 11 | 23 | 16.1 | 24.1 | 0.00 | 0.00 | 0.00 | 65 | 1009.4 |
| 20260506012320 | 11 | 37 | 9.7 | 24.1 | 0.00 | 0.00 | 0.00 | 65 | 1009.2 |